Вернуться в каталог

METEOSAT 7 AKM

АктивенGEO
NORAD 25353·ROCKET BODY·🇪🇺 EU

Запущен Sep 2, 1997 с Guiana Space Centre

Loading…

TLE

СвежийSource: Space-Track

Эпоха: Sep 14, 2026, 09:43 UTC

1 25353U 97049E   26257.40501506  .00000039  00000-0  00000-0 0  9992
2 25353  14.1874 358.5684 0073263 336.3359  23.3475  1.00649132112405

Отслеживайте METEOSAT 7 AKM в реальном времени с AllMySat

Download on the App Store